Weather History for Cleveland Cuyahoga, OH

Change the Weather History Date:

Sunday, February 16, 2014

  Actual Average Record
Temperature  
Mean Temperature 17 °F -  
Max Temperature 24 °F 35 °F 60 °F (2006)
Min Temperature 6 °F 24 °F 6 °F (2004)
Degree Days  
Heating Degree Days 48    
Moisture  
Dew Point 14 °F    
Average Humidity 82    
Maximum Humidity 86    
Minimum Humidity 74    
Precipitation  
Precipitation 0.00 in - - ()
Sea Level Pressure  
Sea Level Pressure 30.08 in    
Wind  
Wind Speed 8 mph (NW)    
Max Wind Speed 14 mph    
Max Gust Speed -    
Visibility 4 miles    
Events Snow    
Averages and records for this station are not official NWS values.
T = Trace of Precipitation, MM = Missing Value Source: NWS Daily Summary

Daily Weather History Graph

Daily Weather History Graph

Search for Another Location

Airport:

Trip Planner

Search our weather history database for the weather conditions in past years. The results will help you decide how hot, cold, wet, or windy it might be!

Date:

Astronomy

Feb. 16, 2014 Rise Set
Actual Time 7:19 AM EST 6:00 PM EST
Civil Twilight 6:51 AM EST 6:29 PM EST
Nautical Twilight 6:19 AM EST 7:01 PM EST
Astronomical Twilight 5:46 AM EST 7:33 PM EST
Moon 7:58 PM EST (2/16) 7:47 AM EST (2/16)
Length of Visible Light 11h 37m
Length of Day
10h 41m
Full, 97% of the Moon is Illuminated
Feb 16
Full
Feb 22
Last Quarter
Mar 1
New
Mar 8
First Quarter
Mar 16
Full

Hourly Weather History & Observations

Time (EST) Temp. Windchill Dew Point Humidity Pressure Visibility Wind Dir Wind Speed Gust Speed Precip Events Conditions
6:45 AM 15.8 °F 4.2 °F 10.4 °F 79% 29.96 in 7.0 mi South 9.2 mph - N/A   Overcast
7:45 AM 17.6 °F 8.2 °F 12.2 °F 79% 29.97 in 7.0 mi South 6.9 mph - N/A   Overcast
8:45 AM 19.4 °F 10.4 °F 12.2 °F 74% 29.97 in 4.0 mi ESE 6.9 mph - N/A Snow Light Snow
9:06 AM 19.4 °F 11.5 °F 12.2 °F 74% 29.98 in 2.0 mi SE 5.8 mph - N/A Snow Light Snow
9:45 AM 19.4 °F 9.5 °F 15.8 °F 86% 29.99 in 1.0 mi SSW 8.1 mph - N/A Snow Light Snow
10:20 AM 21.2 °F 11.7 °F 15.8 °F 80% 29.99 in 0.5 mi SSW 8.1 mph - N/A Snow Snow
10:45 AM 23.0 °F 15.8 °F 19.4 °F 86% 29.99 in 1.0 mi WSW 5.8 mph - N/A Snow Light Snow
11:45 AM 24.8 °F 16.9 °F 19.4 °F 80% 29.99 in 1.5 mi WSW 6.9 mph - N/A Snow Light Snow
12:45 PM 23.0 °F 11.7 °F 17.6 °F 80% 29.98 in 2.0 mi WNW 11.5 mph - N/A Snow Light Snow
1:45 PM 23.0 °F 10.6 °F 17.6 °F 80% 29.99 in 2.0 mi NW 13.8 mph - N/A Snow Light Snow
2:45 PM 23.0 °F 11.1 °F 17.6 °F 80% 30.01 in 3.0 mi North 12.7 mph - N/A Snow Light Snow
3:45 PM 23.0 °F 11.7 °F 17.6 °F 80% 30.05 in 3.0 mi NNW 11.5 mph - N/A Snow Light Snow
4:19 PM 21.2 °F 9.5 °F 17.6 °F 86% 30.09 in 2.0 mi NNW 11.5 mph - N/A Snow Light Snow
4:45 PM 21.2 °F 12.6 °F 17.6 °F 86% 30.11 in 2.0 mi NNW 6.9 mph - N/A Snow Light Snow
5:45 PM 19.4 °F 10.4 °F 15.8 °F 86% 30.17 in 4.0 mi NNW 6.9 mph - N/A Snow Light Snow
6:45 PM 17.6 °F 9.3 °F 14.0 °F 86% 30.20 in 4.0 mi North 5.8 mph - N/A Snow Light Snow
7:45 PM 17.6 °F 8.2 °F 14.0 °F 86% 30.24 in 4.0 mi NNW 6.9 mph - N/A Snow Light Snow
8:45 PM 15.8 °F 4.2 °F 10.4 °F 79% 30.27 in 7.0 mi North 9.2 mph - N/A   Partly Cloudy
9:45 PM 10.4 °F 2.2 °F 6.8 °F 85% 30.31 in 7.0 mi NE 4.6 mph - N/A   Partly Cloudy
10:45 PM 6.8 °F -2.0 °F 1.4 °F 79% 30.34 in 10.0 mi NE 4.6 mph - N/A   Clear